Вернуться в каталог

STARLINK-34262

АктивенСвязьVLEO
NORAD 64688·PAYLOAD·🇺🇸 United States

Запущен Jun 28, 2025 с Cape Canaveral Space Force Station

Loading…

Ближайшие Пролёты (ближайшие 24 часа)

TLE

СвежийSource: CelesTrak SupGP

Эпоха: Sep 15, 2026, 03:05 UTC

1 64688C 25139AA  26258.12895833  .00046800  00000+0  13824-2 0  2589
2 64688  53.1595 322.9161 0001263  85.8447  42.7816 15.34375471    13

Отслеживайте STARLINK-34262 в реальном времени с AllMySat

Download on the App Store